[[{"header":{"parameterUnit":"m.s-1","parameterCategory":1,"la1":30.2991,"la2":30.254,"lo1":-89.0895,"lo2":-89.0444,"dy":0.0017,"dx":0.0017,"nx":28,"ny":28,"refTime":"2025-03-21T21:00:00:Z","depth":0,"parameterNumber":2,"parameterNumberName":"U-component_of_WINDS"},"data":[0,0,0,0,0,0,0,0,0,0,0,0,0,0,0,0,0,0,0,0,0,0,0,0,0,0,0,0,0,0,0,0,0,0,0,0,0,0,0,0,0,0,0,0,0,0,0,0,0,0,0,0,0,0,0,0,0,0,0.6434,0.6435,0,0.6513,0.6514,0.6515,0.6583,0.6584,0.6584,0.6585,0.6667,0.6668,0.6669,0,0,0,0,0,0,0,0,0,0,0,0,0,0.6345,0.6346,0.6434,0.6435,0.6436,0.6513,0.6514,0.6515,0.6583,0.6584,0.6585,0.6586,0.6666,0.6668,0.667,0,0,0,0,0,0,0,0,0,0,0,0,0,0.64,0.6347,0.6434,0.6479,0.6484,0.6513,0.6514,0.6515,0.6583,0.6584,0.6585,0.6586,0.6666,0.6668,0.667,0.666,0,0,0.6676,0.6677,0,0,0,0,0,0,0,0,0.6397,0.6403,0.6472,0.6476,0.6482,0.6539,0.6512,0.6564,0.6582,0.6545,0.6585,0.6587,0.6623,0.6629,0.6641,0.6664,0.6667,0.6677,0.6678,0.6679,0.668,0,0,0,0,0,0,0,0.6393,0.64,0.6465,0.6473,0.6479,0.6496,0.6505,0.6523,0.6577,0.6549,0.6554,0.6562,0.6626,0.6639,0.6644,0.6669,0.6677,0.6679,0.668,0.6681,0.6691,0.669,0,0,0,0,0,0,0.6382,0.6396,0.6463,0.6468,0.6441,0.6497,0.6507,0.652,0.6577,0.6587,0.6561,0.6565,0.6635,0.6641,0.6647,0.6642,0.6679,0.6681,0.6682,0.6692,0.6691,0.669,0,0,0,0,0,0,0.638,0.6387,0.646,0.6434,0.6444,0.6497,0.6511,0.6521,0.6533,0.6586,0.6596,0.6564,0.6636,0.6644,0.6657,0.6646,0.6682,0.6684,0.6693,0.6692,0.669,0.663,0,0,0,0,0,0,0.6377,0.6386,0.6382,0.6433,0.6445,0.6468,0.651,0.6521,0.6537,0.6543,0.6592,0.6601,0.6637,0.6654,0.6659,0.6649,0.6686,0.6695,0.6693,0.6691,0.6633,0.6627,0.6621,0,0,0,0,0,0.6373,0.6361,0.6381,0.6389,0.6441,0.6467,0.6474,0.6516,0.6536,0.6533,0.6567,0.6599,0.6646,0.6654,0.6661,0.6652,0.6696,0.6693,0.6691,0.6636,0.6628,0.6621,0,0,0,0,0,0,0.6307,0.6369,0.6392,0.6396,0.6425,0.6478,0.6476,0.6506,0.6531,0.6535,0.6587,0.6597,0.6605,0.663,0.6638,0.6647,0.6675,0.6674,0.6631,0.6624,0.6618,0.6612,0.6687,0,0,0,0,0,0.6293,0.6308,0.6361,0.636,0.6373,0.6422,0.6434,0.6464,0.6498,0.6511,0.6546,0.6577,0.66,0.6613,0.6636,0.6637,0.665,0.6634,0.6628,0.6623,0.6622,0.6627,0.6622,0.6682,0.6682,0.6682,0,0,0.6264,0.6299,0.6306,0.6347,0.6374,0.639,0.6432,0.6446,0.6458,0.6513,0.6528,0.6555,0.6594,0.6602,0.6607,0.6623,0.6608,0.662,0.6615,0.6617,0.6624,0.6619,0.6613,0.6681,0.6681,0.6681,0,0,0.622,0.6247,0.625,0.6276,0.6316,0.6349,0.635,0.6399,0.6419,0.6435,0.6477,0.6493,0.6529,0.6556,0.6574,0.6542,0.6574,0.6548,0.6516,0.6521,0.6516,0.6512,0.6504,0.6499,0.6547,0.6546,0.6546,0,0.6179,0.6203,0.6248,0.626,0.6278,0.6329,0.6333,0.6357,0.6402,0.6414,0.643,0.6479,0.6508,0.6525,0.6517,0.6529,0.6533,0.6543,0.6513,0.651,0.6507,0.6499,0.6495,0.6543,0.6544,0.6544,0.6544,0,0.6152,0.6168,0.6166,0.621,0.6228,0.6235,0.6283,0.6296,0.6325,0.6356,0.6373,0.6411,0.6443,0.6449,0.6477,0.647,0.6479,0.6503,0.6533,0.6497,0.6491,0.6488,0.6539,0.654,0.6541,0.6542,0,0,0.6068,0.6137,0.6136,0.6157,0.6206,0.6221,0.6232,0.6264,0.6275,0.6305,0.6318,0.6348,0.6372,0.6393,0.6424,0.6428,0.6404,0.6453,0.6455,0.6444,0.6402,0.6385,0.638,0.6425,0.6424,0.6424,0.64,0,0.6033,0.6056,0.6098,0.6108,0.6125,0.6174,0.6185,0.6217,0.6247,0.6266,0.63,0.6322,0.635,0.6363,0.6369,0.6405,0.6396,0.6407,0.6439,0.6439,0.6429,0.6377,0.6358,0.6333,0.6397,0.6397,0.6397,0,0.5995,0.6023,0.6035,0.6086,0.6095,0.6103,0.6137,0.6155,0.6193,0.6215,0.6239,0.6274,0.6291,0.6316,0.6341,0.6348,0.6363,0.6383,0.6383,0.6389,0.6417,0.6383,0.6326,0.6323,0.6393,0.6393,0.6393,0,0.5935,0.5976,0.599,0.6006,0.6064,0.607,0.6094,0.6133,0.6151,0.6181,0.6194,0.6225,0.6243,0.6267,0.631,0.6324,0.6331,0.636,0.6352,0.6351,0.6352,0.6351,0.6299,0.6358,0.6358,0.6358,0.6358,0,0.5893,0.5899,0.5964,0.5972,0.5981,0.603,0.6038,0.6067,0.6102,0.6118,0.6162,0.6176,0.6231,0.6253,0.6287,0.6304,0.6311,0.633,0.634,0.6328,0.6325,0.6339,0.6343,0.6357,0.6358,0.6358,0.6358,0,0.5828,0.5872,0.589,0.5944,0.5958,0.5962,0.6009,0.602,0.6053,0.6073,0.6081,0.6133,0.6161,0.6206,0.6247,0.627,0.6281,0.6296,0.6268,0.6275,0.6265,0.6266,0.622,0.6218,0.6276,0.6276,0.6275,0,0.5799,0.5806,0.5861,0.5875,0.5898,0.5919,0.5938,0.5986,0.6004,0.6049,0.6055,0.6086,0.6114,0.6156,0.6199,0.6231,0.6248,0.6229,0.6253,0.6241,0.625,0.625,0.6252,0.6224,0.6223,0.6223,0.6222,0,0.5744,0.5766,0.5791,0.5824,0.5845,0.5873,0.5904,0.5913,0.5968,0.5986,0.6015,0.6037,0.6079,0.6111,0.6149,0.6176,0.6209,0.6214,0.6215,0.6203,0.6188,0.6199,0.6256,0.6216,0.6216,0.6217,0.6217,0.6217,0.5698,0.5707,0.5748,0.5775,0.5803,0.5831,0.5845,0.588,0.5905,0.5944,0.5971,0.5998,0.6039,0.6094,0.6119,0.6143,0.6158,0.6157,0.6158,0.6157,0.6154,0.6183,0.615,0.615,0.615,0.6151,0.6151,0,0.5648,0.5677,0.5701,0.5743,0.5765,0.5793,0.583,0.5846,0.587,0.5905,0.5931,0.5966,0.5997,0.6043,0.6078,0.6088,0.6104,0.6096,0.6096,0.6103,0.6137,0.6135,0.6082,0.6082,0.6082,0.6082,0.6082,0.6082,0.5624,0.5641,0.5668,0.57,0.573,0.5757,0.5776,0.5803,0.5831,0.5868,0.5894,0.5923,0.5963,0.6002,0.6032,0.6045,0.6057,0.6044,0.6061,0.6093,0.61,0.6106,0.6104,0.6046,0.6045,0.6025,0.6025,0.6025]},{"header":{"parameterUnit":"m.s-1","parameterCategory":1,"la1":30.2991,"la2":30.254,"lo1":-89.0895,"lo2":-89.0444,"dy":0.0017,"dx":0.0017,"nx":28,"ny":28,"refTime":"2025-03-21T21:00:00:Z","depth":0,"parameterNumber":3,"parameterNumberName":"V-component_of_WINDS"},"data":[0,0,0,0,0,0,0,0,0,0,0,0,0,0,0,0,0,0,0,0,0,0,0,0,0,0,0,0,0,0,0,0,0,0,0,0,0,0,0,0,0,0,0,0,0,0,0,0,0,0,0,0,0,0,0,0,0,0,-0.2373,-0.2374,0,-0.2456,-0.2457,-0.2458,-0.2477,-0.2476,-0.2476,-0.2475,-0.2562,-0.2565,-0.2568,0,0,0,0,0,0,0,0,0,0,0,0,0,-0.2231,-0.2234,-0.2373,-0.2374,-0.2375,-0.2456,-0.2457,-0.2458,-0.2477,-0.2476,-0.2476,-0.2475,-0.2561,-0.2564,-0.2568,0,0,0,0,0,0,0,0,0,0,0,0,0,-0.2301,-0.2235,-0.2372,-0.2394,-0.2397,-0.2456,-0.2457,-0.2458,-0.2477,-0.2476,-0.2476,-0.2475,-0.256,-0.2564,-0.2568,-0.2612,0,0,-0.2581,-0.2583,0,0,0,0,0,0,0,0,-0.2297,-0.2307,-0.239,-0.2393,-0.2396,-0.2455,-0.2439,-0.251,-0.2478,-0.2447,-0.2475,-0.2474,-0.2527,-0.2534,-0.2552,-0.2616,-0.262,-0.2582,-0.2584,-0.2586,-0.2587,0,0,0,0,0,0,0,-0.2293,-0.2303,-0.2406,-0.2391,-0.2395,-0.24,-0.2409,-0.2452,-0.2491,-0.2449,-0.2451,-0.246,-0.2529,-0.2548,-0.2554,-0.2621,-0.2582,-0.2585,-0.2588,-0.259,-0.2725,-0.2726,0,0,0,0,0,0,-0.2284,-0.2299,-0.2403,-0.2408,-0.2343,-0.2403,-0.2413,-0.2437,-0.249,-0.2498,-0.2461,-0.2461,-0.2541,-0.2549,-0.2557,-0.2612,-0.2586,-0.259,-0.2593,-0.2724,-0.2726,-0.2727,0,0,0,0,0,0,-0.2281,-0.2293,-0.24,-0.2354,-0.2368,-0.2406,-0.2433,-0.2439,-0.2458,-0.2499,-0.2506,-0.2473,-0.254,-0.2551,-0.2598,-0.2615,-0.2592,-0.2596,-0.2723,-0.2725,-0.2726,-0.2722,0,0,0,0,0,0,-0.2277,-0.2292,-0.2308,-0.2354,-0.237,-0.2439,-0.2434,-0.2441,-0.2465,-0.2466,-0.2513,-0.2519,-0.254,-0.2592,-0.2602,-0.2621,-0.2599,-0.2722,-0.2724,-0.2726,-0.272,-0.2723,-0.2725,0,0,0,0,0,-0.2271,-0.2304,-0.2309,-0.2322,-0.2392,-0.244,-0.2449,-0.2472,-0.2466,-0.2484,-0.251,-0.2518,-0.2611,-0.2596,-0.2608,-0.2628,-0.2721,-0.2723,-0.2726,-0.2719,-0.2722,-0.2725,0,0,0,0,0,0,-0.226,-0.231,-0.2317,-0.2365,-0.2398,-0.2443,-0.2466,-0.2475,-0.251,-0.2509,-0.2537,-0.2547,-0.2593,-0.2615,-0.2598,-0.2673,-0.2666,-0.2671,-0.2657,-0.266,-0.2662,-0.2656,-0.2603,0,0,0,0,0,-0.2263,-0.2297,-0.234,-0.2378,-0.2394,-0.2427,-0.2449,-0.2464,-0.2499,-0.2513,-0.2543,-0.2578,-0.2615,-0.2639,-0.2675,-0.2724,-0.2734,-0.2743,-0.2745,-0.2747,-0.2751,-0.2779,-0.2783,-0.2735,-0.2735,-0.2735,0,0,-0.2269,-0.2301,-0.2321,-0.2376,-0.2404,-0.2439,-0.2439,-0.2476,-0.2502,-0.2519,-0.2565,-0.2588,-0.2629,-0.2677,-0.2699,-0.2697,-0.2767,-0.275,-0.2751,-0.2754,-0.2781,-0.2786,-0.279,-0.2736,-0.2736,-0.2736,0,0,-0.2299,-0.2327,-0.2362,-0.2389,-0.243,-0.2452,-0.246,-0.2504,-0.252,-0.2567,-0.258,-0.2612,-0.2675,-0.2703,-0.2726,-0.2766,-0.2775,-0.2777,-0.2789,-0.2816,-0.2819,-0.2823,-0.2838,-0.2842,-0.2781,-0.2781,-0.2781,0,-0.2303,-0.2356,-0.2379,-0.2416,-0.244,-0.2456,-0.2492,-0.2517,-0.2568,-0.2585,-0.2581,-0.266,-0.2689,-0.2744,-0.2753,-0.2771,-0.2782,-0.2772,-0.2817,-0.2821,-0.2824,-0.2839,-0.2844,-0.2781,-0.2781,-0.2781,-0.2781,0,-0.2358,-0.2394,-0.2418,-0.2466,-0.2493,-0.2529,-0.2558,-0.2582,-0.2595,-0.2617,-0.2664,-0.2699,-0.2742,-0.2756,-0.2769,-0.2813,-0.281,-0.2811,-0.2805,-0.2829,-0.2842,-0.2848,-0.2781,-0.2781,-0.2781,-0.2781,0,0,-0.2383,-0.2444,-0.2452,-0.2474,-0.252,-0.255,-0.2586,-0.2629,-0.2649,-0.2684,-0.2715,-0.2768,-0.277,-0.2795,-0.2811,-0.2834,-0.2864,-0.2833,-0.2834,-0.2838,-0.2915,-0.2914,-0.292,-0.287,-0.2871,-0.2872,-0.2912,0,-0.2419,-0.2485,-0.2507,-0.2562,-0.2597,-0.2612,-0.2644,-0.2676,-0.2698,-0.273,-0.2754,-0.2791,-0.279,-0.2806,-0.2829,-0.2856,-0.288,-0.2853,-0.2901,-0.2902,-0.289,-0.2928,-0.2927,-0.2963,-0.2918,-0.2919,-0.2919,0,-0.247,-0.2505,-0.2563,-0.2605,-0.2621,-0.2649,-0.269,-0.272,-0.2757,-0.2771,-0.2799,-0.2814,-0.2853,-0.2843,-0.2899,-0.2879,-0.29,-0.2916,-0.2918,-0.2924,-0.2912,-0.2935,-0.2975,-0.298,-0.2928,-0.2927,-0.2927,0,-0.2483,-0.2545,-0.2588,-0.2606,-0.2656,-0.2676,-0.2698,-0.2733,-0.2757,-0.2793,-0.2809,-0.2848,-0.287,-0.2901,-0.2925,-0.2916,-0.2978,-0.2971,-0.2991,-0.2991,-0.3004,-0.3003,-0.3048,-0.3017,-0.3017,-0.3017,-0.3016,0,-0.2522,-0.2557,-0.2594,-0.2621,-0.266,-0.2685,-0.2724,-0.2747,-0.2779,-0.281,-0.2826,-0.2855,-0.2886,-0.2919,-0.2938,-0.2981,-0.2991,-0.3004,-0.3008,-0.3002,-0.3001,-0.3017,-0.3015,-0.3018,-0.3018,-0.3017,-0.3017,0,-0.2543,-0.257,-0.2617,-0.266,-0.2672,-0.27,-0.2737,-0.2763,-0.2785,-0.2824,-0.2835,-0.287,-0.291,-0.2937,-0.2989,-0.3002,-0.3048,-0.3052,-0.3035,-0.3038,-0.3057,-0.3055,-0.3114,-0.3124,-0.3085,-0.3086,-0.3086,0,-0.2566,-0.2593,-0.2639,-0.2661,-0.2683,-0.2718,-0.2742,-0.2767,-0.2792,-0.2836,-0.2857,-0.2898,-0.2932,-0.2995,-0.3025,-0.3065,-0.307,-0.3089,-0.3077,-0.307,-0.3071,-0.3069,-0.3072,-0.3091,-0.3091,-0.3091,-0.3091,0,-0.2603,-0.2615,-0.2649,-0.2688,-0.2717,-0.2749,-0.2781,-0.2798,-0.2829,-0.2856,-0.2897,-0.2923,-0.2976,-0.3016,-0.3058,-0.3081,-0.3092,-0.3095,-0.3102,-0.3096,-0.3085,-0.3091,-0.3041,-0.3093,-0.3093,-0.3093,-0.3093,-0.3093,-0.2627,-0.2652,-0.2688,-0.2725,-0.2752,-0.2782,-0.2808,-0.2833,-0.2868,-0.2912,-0.2925,-0.2967,-0.3004,-0.3061,-0.3085,-0.3119,-0.3117,-0.3127,-0.313,-0.3132,-0.3132,-0.3079,-0.3126,-0.3126,-0.3126,-0.3126,-0.3126,0,-0.2665,-0.2689,-0.2723,-0.2768,-0.2797,-0.2804,-0.284,-0.2864,-0.2901,-0.2934,-0.2967,-0.3014,-0.3053,-0.3086,-0.3127,-0.3147,-0.3153,-0.3157,-0.3156,-0.3161,-0.3131,-0.3121,-0.3152,-0.3152,-0.3152,-0.3152,-0.3152,-0.3152,-0.2689,-0.2731,-0.2747,-0.2803,-0.2827,-0.2868,-0.2888,-0.2916,-0.2942,-0.2993,-0.3026,-0.3047,-0.308,-0.3123,-0.316,-0.3168,-0.3183,-0.3186,-0.3195,-0.3166,-0.3163,-0.3161,-0.3151,-0.3188,-0.3189,-0.3223,-0.3224,-0.3224]}]]